| time (UTC) | temp F | wind direction | speed knots | gust knots | rain 1hr in | rain 24hr in | rain mn in | humidity % | barometer mb |
| 20260508054605 | 43 | 0 | 0.0 | 0.0 | 0.00 | 0.00 | 0.00 | 80 | 1012.8 |
| 20260508054101 | 43 | 0 | 0.0 | 0.0 | 0.00 | 0.00 | 0.00 | 80 | 1013.0 |
| 20260508053559 | 43 | 0 | 0.0 | 0.0 | 0.00 | 0.00 | 0.00 | 80 | 1013.0 |
| 20260508053105 | 43 | 0 | 0.0 | 0.0 | 0.00 | 0.00 | 0.00 | 79 | 1013.0 |
| 20260508052601 | 43 | 0 | 0.0 | 0.0 | 0.00 | 0.00 | 0.00 | 79 | 1013.1 |
| 20260508052103 | 43 | 0 | 0.0 | 0.0 | 0.00 | 0.00 | 0.00 | 79 | 1013.2 |
| 20260508051600 | 43 | 0 | 0.0 | 0.0 | 0.00 | 0.00 | 0.00 | 79 | 1013.2 |
| 20260508051100 | 42 | 0 | 0.0 | 0.0 | 0.00 | 0.00 | 0.00 | 79 | 1013.1 |
| 20260508050601 | 42 | 0 | 0.0 | 0.0 | 0.00 | 0.00 | 0.00 | 79 | 1013.3 |
| 20260508045600 | 42 | 0 | 0.0 | 0.0 | 0.00 | 0.00 | 0.00 | 79 | 1013.4 |
| 20260508045101 | 42 | 0 | 0.0 | 0.0 | 0.00 | 0.00 | 0.00 | 78 | 1013.4 |
| 20260508044559 | 42 | 0 | 0.0 | 0.0 | 0.00 | 0.00 | 0.00 | 78 | 1013.4 |
| 20260508044059 | 42 | 0 | 0.0 | 0.0 | 0.00 | 0.00 | 0.00 | 78 | 1013.4 |
| 20260508043559 | 42 | 0 | 0.0 | 0.0 | 0.00 | 0.00 | 0.00 | 79 | 1013.2 |
| 20260508043103 | 41 | 0 | 0.0 | 0.0 | 0.00 | 0.00 | 0.00 | 79 | 1013.4 |
| 20260508042600 | 41 | 0 | 0.0 | 0.0 | 0.00 | 0.00 | 0.00 | 79 | 1013.3 |
| 20260508042102 | 41 | 0 | 0.0 | 0.0 | 0.00 | 0.00 | 0.00 | 80 | 1013.3 |
| 20260508041605 | 41 | 0 | 0.0 | 0.0 | 0.00 | 0.00 | 0.00 | 81 | 1013.3 |
| 20260508041100 | 41 | 0 | 0.0 | 0.0 | 0.00 | 0.00 | 0.00 | 80 | 1013.3 |
| 20260508040600 | 41 | 0 | 0.0 | 0.0 | 0.00 | 0.00 | 0.00 | 80 | 1013.3 |
| 20260508040111 | 41 | 0 | 0.0 | 0.0 | 0.00 | 0.00 | 0.00 | 80 | 1013.3 |
| 20260508035600 | 41 | 0 | 0.0 | 0.0 | 0.00 | 0.00 | 0.00 | 80 | 1013.3 |
| 20260508035100 | 41 | 0 | 0.0 | 0.0 | 0.00 | 0.00 | 0.00 | 81 | 1013.3 |
| 20260508034600 | 41 | 0 | 0.0 | 0.0 | 0.00 | 0.00 | 0.00 | 80 | 1013.3 |
| 20260508034100 | 41 | 0 | 0.0 | 0.0 | 0.00 | 0.00 | 0.00 | 79 | 1013.2 |
| 20260508033604 | 41 | 0 | 0.0 | 0.0 | 0.00 | 0.00 | 0.00 | 79 | 1013.4 |
| 20260508033103 | 41 | 0 | 0.0 | 0.0 | 0.00 | 0.00 | 0.00 | 78 | 1013.2 |
| 20260508032600 | 41 | 0 | 0.0 | 0.0 | 0.00 | 0.00 | 0.00 | 78 | 1013.2 |
| 20260508032059 | 41 | 0 | 0.0 | 0.0 | 0.00 | 0.00 | 0.00 | 78 | 1013.2 |
| 20260508031608 | 41 | 0 | 0.0 | 0.0 | 0.00 | 0.00 | 0.00 | 78 | 1013.1 |
| 20260508031100 | 41 | 0 | 0.0 | 0.0 | 0.00 | 0.00 | 0.00 | 78 | 1013.1 |
| 20260508030600 | 41 | 0 | 0.0 | 0.0 | 0.00 | 0.00 | 0.00 | 78 | 1013.1 |
| 20260508030126 | 41 | 0 | 0.0 | 0.0 | 0.00 | 0.00 | 0.00 | 78 | 1013.1 |
| 20260508025559 | 42 | 0 | 0.0 | 0.0 | 0.00 | 0.00 | 0.00 | 78 | 1013.3 |
| 20260508025059 | 42 | 0 | 0.0 | 0.0 | 0.00 | 0.00 | 0.00 | 78 | 1013.3 |
| 20260508024606 | 42 | 0 | 0.0 | 0.0 | 0.00 | 0.00 | 0.00 | 78 | 1013.2 |
| 20260508024059 | 42 | 0 | 0.0 | 0.0 | 0.00 | 0.00 | 0.00 | 77 | 1013.2 |
| 20260508023600 | 42 | 0 | 0.0 | 0.0 | 0.00 | 0.00 | 0.00 | 76 | 1013.3 |
| 20260508023059 | 42 | 0 | 0.0 | 0.0 | 0.00 | 0.00 | 0.00 | 75 | 1013.2 |
| 20260508022600 | 43 | 0 | 0.0 | 0.0 | 0.00 | 0.00 | 0.00 | 73 | 1013.2 |
| 20260508022100 | 43 | 0 | 0.0 | 0.0 | 0.00 | 0.00 | 0.00 | 73 | 1013.1 |
| 20260508021559 | 43 | 0 | 0.0 | 0.0 | 0.00 | 0.00 | 0.00 | 73 | 1013.2 |
| 20260508021100 | 43 | 0 | 0.0 | 0.0 | 0.00 | 0.00 | 0.00 | 72 | 1013.1 |
| 20260508020600 | 44 | 0 | 0.0 | 0.0 | 0.00 | 0.00 | 0.00 | 71 | 1013.1 |
| 20260508020059 | 44 | 0 | 0.0 | 0.0 | 0.00 | 0.00 | 0.00 | 71 | 1013.1 |
| 20260508015600 | 44 | 0 | 0.0 | 0.0 | 0.00 | 0.00 | 0.00 | 71 | 1013.1 |
| 20260508015100 | 44 | 0 | 0.0 | 0.0 | 0.00 | 0.00 | 0.00 | 69 | 1013.0 |
| 20260508014601 | 45 | 0 | 0.0 | 0.0 | 0.00 | 0.00 | 0.00 | 68 | 1013.0 |
| 20260508014100 | 45 | 0 | 0.0 | 0.0 | 0.00 | 0.00 | 0.00 | 63 | 1013.0 |
| 20260508013600 | 45 | 0 | 0.0 | 0.0 | 0.00 | 0.00 | 0.00 | 63 | 1013.0 |
| 20260508013059 | 46 | 0 | 0.0 | 0.0 | 0.00 | 0.00 | 0.00 | 61 | 1012.9 |
| 20260508012600 | 46 | 0 | 0.0 | 0.0 | 0.00 | 0.00 | 0.00 | 60 | 1012.9 |
| 20260508012103 | 47 | 0 | 0.0 | 0.0 | 0.00 | 0.00 | 0.00 | 59 | 1012.9 |
| 20260508011611 | 47 | 0 | 0.0 | 0.0 | 0.00 | 0.00 | 0.00 | 59 | 1012.9 |
| 20260508011100 | 48 | 0 | 0.0 | 0.0 | 0.00 | 0.00 | 0.00 | 56 | 1012.8 |
| 20260508010600 | 48 | 0 | 0.0 | 0.0 | 0.00 | 0.00 | 0.00 | 55 | 1012.8 |
| 20260508010108 | 48 | 0 | 0.0 | 0.0 | 0.00 | 0.00 | 0.00 | 53 | 1012.8 |
| 20260508005600 | 49 | 0 | 0.0 | 0.0 | 0.00 | 0.00 | 0.00 | 53 | 1012.8 |
| 20260508005100 | 49 | 0 | 0.0 | 0.0 | 0.00 | 0.00 | 0.00 | 54 | 1012.8 |
| 20260508004605 | 49 | 0 | 0.0 | 0.0 | 0.00 | 0.00 | 0.00 | 53 | 1012.8 |
| 20260508004059 | 49 | 0 | 0.0 | 0.9 | 0.00 | 0.00 | 0.00 | 52 | 1012.8 |
| 20260508003600 | 50 | 0 | 0.0 | 0.9 | 0.00 | 0.00 | 0.00 | 50 | 1012.8 |
| 20260508003112 | 50 | 0 | 0.0 | 0.9 | 0.00 | 0.00 | 0.00 | 49 | 1012.7 |
| 20260508002600 | 50 | 0 | 0.0 | 0.0 | 0.00 | 0.00 | 0.00 | 48 | 1012.7 |
| 20260508002059 | 51 | 0 | 0.0 | 0.9 | 0.00 | 0.00 | 0.00 | 46 | 1012.7 |
| 20260508001559 | 51 | 0 | 0.0 | 2.6 | 0.00 | 0.00 | 0.00 | 46 | 1012.6 |
| 20260508001100 | 51 | 0 | 0.0 | 2.6 | 0.00 | 0.00 | 0.00 | 47 | 1012.5 |
| 20260508000600 | 51 | 290 | 0.0 | 1.7 | 0.00 | 0.00 | 0.00 | 46 | 1012.5 |
| 20260508000101 | 51 | 0 | 0.0 | 1.7 | 0.00 | 0.00 | 0.00 | 46 | 1012.4 |
| 20260507235600 | 51 | 0 | 0.0 | 1.7 | 0.00 | 0.00 | 0.00 | 45 | 1012.3 |
| 20260507235100 | 52 | 51 | 0.0 | 1.7 | 0.00 | 0.00 | 0.00 | 49 | 1012.3 |
| 20260507234559 | 52 | 0 | 0.0 | 1.7 | 0.00 | 0.00 | 0.00 | 44 | 1012.3 |
| 20260507234100 | 52 | 0 | 0.0 | 1.7 | 0.00 | 0.00 | 0.00 | 45 | 1012.2 |
| 20260507233600 | 52 | 0 | 0.0 | 1.7 | 0.00 | 0.00 | 0.00 | 47 | 1012.2 |
| 20260507233059 | 52 | 191 | 0.9 | 1.7 | 0.00 | 0.00 | 0.00 | 46 | 1012.3 |
| 20260507232600 | 52 | 347 | 0.0 | 1.7 | 0.00 | 0.00 | 0.00 | 44 | 1012.3 |
| 20260507232059 | 53 | 285 | 0.0 | 4.3 | 0.00 | 0.00 | 0.00 | 44 | 1012.3 |
| 20260507231617 | 53 | 329 | 0.9 | 4.3 | 0.00 | 0.00 | 0.00 | 45 | 1012.2 |
| 20260507231059 | 53 | 323 | 0.9 | 4.3 | 0.00 | 0.00 | 0.00 | 43 | 1012.3 |
| 20260507230559 | 53 | 276 | 0.0 | 3.5 | 0.00 | 0.00 | 0.00 | 42 | 1012.3 |
| 20260507230100 | 53 | 44 | 0.9 | 3.5 | 0.00 | 0.00 | 0.00 | 43 | 1012.3 |
| 20260507225559 | 53 | 39 | 0.9 | 2.6 | 0.00 | 0.00 | 0.00 | 43 | 1012.3 |
| 20260507225102 | 53 | 261 | 0.9 | 2.6 | 0.00 | 0.00 | 0.00 | 42 | 1012.1 |
| 20260507224607 | 54 | 0 | 0.9 | 2.6 | 0.00 | 0.00 | 0.00 | 44 | 1012.2 |
| 20260507224101 | 54 | 258 | 0.0 | 3.5 | 0.00 | 0.00 | 0.00 | 45 | 1012.3 |
| 20260507223600 | 54 | 0 | 0.0 | 3.5 | 0.00 | 0.00 | 0.00 | 45 | 1012.3 |
| 20260507223058 | 53 | 253 | 0.9 | 3.5 | 0.00 | 0.00 | 0.00 | 44 | 1012.3 |
| 20260507222602 | 53 | 216 | 0.9 | 3.5 | 0.00 | 0.00 | 0.00 | 41 | 1012.2 |
| 20260507222100 | 53 | 301 | 0.9 | 4.3 | 0.00 | 0.00 | 0.00 | 47 | 1012.3 |
| 20260507221600 | 53 | 40 | 0.9 | 4.3 | 0.00 | 0.00 | 0.00 | 46 | 1012.2 |
| 20260507221059 | 53 | 278 | 0.9 | 4.3 | 0.00 | 0.00 | 0.00 | 48 | 1012.3 |
| 20260507220601 | 54 | 277 | 0.9 | 4.3 | 0.00 | 0.00 | 0.00 | 48 | 1012.3 |
| 20260507220101 | 54 | 270 | 0.0 | 3.5 | 0.00 | 0.00 | 0.00 | 51 | 1012.2 |
| 20260507215600 | 54 | 217 | 0.9 | 2.6 | 0.00 | 0.00 | 0.00 | 50 | 1012.2 |
| 20260507215102 | 54 | 271 | 0.9 | 2.6 | 0.00 | 0.00 | 0.00 | 52 | 1012.1 |
| 20260507214610 | 54 | 289 | 0.9 | 2.6 | 0.00 | 0.00 | 0.00 | 52 | 1012.1 |
| 20260507214100 | 54 | 290 | 0.9 | 1.7 | 0.00 | 0.00 | 0.00 | 53 | 1012.1 |
| 20260507213601 | 53 | 51 | 0.0 | 1.7 | 0.00 | 0.00 | 0.00 | 55 | 1012.0 |
| 20260507213109 | 53 | 271 | 0.0 | 2.6 | 0.00 | 0.00 | 0.00 | 55 | 1011.9 |
| 20260507212600 | 53 | 356 | 0.0 | 2.6 | 0.00 | 0.00 | 0.00 | 56 | 1011.9 |
| 20260507212100 | 52 | 257 | 0.9 | 2.6 | 0.00 | 0.00 | 0.00 | 56 | 1011.9 |
| 20260507211558 | 52 | 55 | 0.9 | 1.7 | 0.00 | 0.00 | 0.00 | 57 | 1011.9 |
| 20260507211059 | 52 | 13 | 0.9 | 1.7 | 0.00 | 0.00 | 0.00 | 56 | 1011.9 |
| 20260507210600 | 52 | 326 | 0.9 | 2.6 | 0.00 | 0.00 | 0.00 | 57 | 1011.9 |
| 20260507210059 | 52 | 264 | 0.9 | 2.6 | 0.00 | 0.00 | 0.00 | 56 | 1011.9 |
| 20260507205600 | 52 | 339 | 0.9 | 2.6 | 0.00 | 0.00 | 0.00 | 56 | 1011.9 |
| 20260507205059 | 53 | 0 | 0.9 | 2.6 | 0.00 | 0.00 | 0.00 | 54 | 1012.0 |
| 20260507204612 | 53 | 320 | 0.9 | 3.5 | 0.00 | 0.00 | 0.00 | 53 | 1011.8 |
| 20260507204059 | 54 | 0 | 0.9 | 3.5 | 0.00 | 0.00 | 0.00 | 53 | 1011.7 |
| 20260507203559 | 54 | 56 | 0.9 | 3.5 | 0.00 | 0.00 | 0.00 | 52 | 1011.7 |
| 20260507203058 | 54 | 0 | 0.0 | 1.7 | 0.00 | 0.00 | 0.00 | 54 | 1011.6 |
| 20260507202602 | 53 | 11 | 0.0 | 1.7 | 0.00 | 0.00 | 0.00 | 54 | 1011.7 |
| 20260507202059 | 53 | 265 | 0.0 | 2.6 | 0.00 | 0.00 | 0.00 | 54 | 1011.6 |
| 20260507201600 | 53 | 264 | 0.9 | 2.6 | 0.00 | 0.00 | 0.00 | 54 | 1011.7 |
| 20260507201059 | 53 | 226 | 0.9 | 2.6 | 0.00 | 0.00 | 0.00 | 54 | 1011.6 |
| 20260507200559 | 54 | 0 | 0.0 | 2.6 | 0.00 | 0.00 | 0.00 | 50 | 1011.6 |
| 20260507200101 | 54 | 297 | 0.9 | 4.3 | 0.00 | 0.00 | 0.00 | 51 | 1011.6 |
| 20260507195600 | 54 | 299 | 0.0 | 4.3 | 0.00 | 0.00 | 0.00 | 54 | 1011.6 |
| 20260507195100 | 54 | 4 | 0.9 | 4.3 | 0.00 | 0.00 | 0.00 | 51 | 1011.7 |
| 20260507194558 | 54 | 308 | 0.9 | 3.5 | 0.00 | 0.00 | 0.00 | 50 | 1011.8 |
| 20260507194059 | 55 | 27 | 0.9 | 2.6 | 0.00 | 0.00 | 0.00 | 49 | 1011.8 |
| 20260507193559 | 55 | 274 | 0.9 | 2.6 | 0.00 | 0.00 | 0.00 | 48 | 1011.9 |
| 20260507193110 | 55 | 248 | 0.9 | 2.6 | 0.00 | 0.00 | 0.00 | 50 | 1011.9 |
| 20260507192559 | 55 | 292 | 0.9 | 4.3 | 0.00 | 0.00 | 0.00 | 47 | 1011.9 |
| 20260507192100 | 55 | 38 | 0.0 | 4.3 | 0.00 | 0.00 | 0.00 | 51 | 1011.8 |
| 20260507191601 | 55 | 21 | 1.7 | 4.3 | 0.00 | 0.00 | 0.00 | 47 | 1012.0 |
| 20260507191100 | 55 | 13 | 0.9 | 2.6 | 0.00 | 0.00 | 0.00 | 48 | 1011.9 |
| 20260507190600 | 54 | 292 | 0.9 | 2.6 | 0.00 | 0.00 | 0.00 | 48 | 1011.9 |
| 20260507190105 | 54 | 352 | 0.0 | 2.6 | 0.00 | 0.00 | 0.00 | 49 | 1012.0 |
| 20260507185559 | 54 | 297 | 0.0 | 2.6 | 0.00 | 0.00 | 0.00 | 52 | 1012.1 |
| 20260507185100 | 53 | 0 | 0.9 | 2.6 | 0.00 | 0.00 | 0.00 | 51 | 1012.0 |
| 20260507184559 | 53 | 344 | 0.0 | 2.6 | 0.00 | 0.00 | 0.00 | 49 | 1012.0 |
| 20260507184100 | 54 | 333 | 0.9 | 2.6 | 0.00 | 0.00 | 0.00 | 49 | 1012.1 |
| 20260507183559 | 54 | 0 | 0.0 | 2.6 | 0.00 | 0.00 | 0.00 | 50 | 1012.0 |
| 20260507183111 | 54 | 321 | 0.9 | 2.6 | 0.00 | 0.00 | 0.00 | 50 | 1012.1 |
| 20260507182600 | 54 | 264 | 0.0 | 2.6 | 0.00 | 0.00 | 0.00 | 53 | 1011.9 |
| 20260507182101 | 54 | 286 | 0.0 | 2.6 | 0.00 | 0.00 | 0.00 | 51 | 1012.0 |
| 20260507181059 | 55 | 39 | 0.9 | 3.5 | 0.00 | 0.00 | 0.00 | 48 | 1012.0 |
| 20260507180600 | 56 | 331 | 0.9 | 3.5 | 0.00 | 0.00 | 0.00 | 50 | 1011.9 |
| 20260507180106 | 56 | 34 | 1.7 | 3.5 | 0.00 | 0.00 | 0.00 | 51 | 1012.0 |
| 20260507175559 | 56 | 358 | 0.9 | 2.6 | 0.00 | 0.00 | 0.00 | 53 | 1011.9 |
| 20260507175100 | 55 | 63 | 0.9 | 2.6 | 0.00 | 0.00 | 0.00 | 53 | 1011.9 |
| 20260507174559 | 55 | 60 | 0.9 | 3.5 | 0.00 | 0.00 | 0.00 | 54 | 1011.9 |
| 20260507174059 | 55 | 319 | 0.9 | 3.5 | 0.00 | 0.00 | 0.00 | 52 | 1012.0 |
| 20260507173559 | 56 | 271 | 0.9 | 3.5 | 0.00 | 0.00 | 0.00 | 53 | 1012.0 |
| 20260507173101 | 55 | 286 | 0.9 | 3.5 | 0.00 | 0.00 | 0.00 | 52 | 1011.9 |
| 20260507172604 | 55 | 53 | 0.0 | 2.6 | 0.00 | 0.00 | 0.00 | 54 | 1011.9 |
| 20260507172059 | 55 | 283 | 0.9 | 1.7 | 0.00 | 0.00 | 0.00 | 51 | 1011.9 |
| 20260507171604 | 55 | 7 | 0.0 | 1.7 | 0.00 | 0.00 | 0.00 | 48 | 1011.9 |
| 20260507171101 | 55 | 271 | 0.0 | 1.7 | 0.00 | 0.00 | 0.00 | 51 | 1012.0 |
| 20260507170603 | 55 | 293 | 0.0 | 2.6 | 0.00 | 0.00 | 0.00 | 50 | 1012.0 |
| 20260507165600 | 55 | 38 | 0.9 | 2.6 | 0.00 | 0.00 | 0.00 | 46 | 1011.9 |
| 20260507165100 | 56 | 0 | 0.0 | 1.7 | 0.00 | 0.00 | 0.00 | 47 | 1012.0 |
| 20260507164601 | 56 | 244 | 0.9 | 2.6 | 0.00 | 0.00 | 0.00 | 43 | 1012.0 |
| 20260507164101 | 56 | 252 | 0.9 | 2.6 | 0.00 | 0.00 | 0.00 | 45 | 1012.0 |
| 20260507163605 | 56 | 289 | 0.0 | 2.6 | 0.00 | 0.00 | 0.00 | 46 | 1012.0 |
| 20260507163105 | 56 | 18 | 0.0 | 4.3 | 0.00 | 0.00 | 0.00 | 44 | 1012.0 |
| 20260507162601 | 55 | 247 | 0.9 | 4.3 | 0.00 | 0.00 | 0.00 | 44 | 1012.0 |
| 20260507162105 | 56 | 11 | 0.9 | 2.6 | 0.00 | 0.00 | 0.00 | 45 | 1011.9 |
| 20260507161611 | 55 | 254 | 0.0 | 2.6 | 0.00 | 0.00 | 0.00 | 47 | 1012.0 |
| 20260507161100 | 55 | 207 | 0.0 | 3.5 | 0.00 | 0.00 | 0.00 | 43 | 1012.0 |
| 20260507160601 | 55 | 38 | 0.9 | 3.5 | 0.00 | 0.00 | 0.00 | 42 | 1011.9 |
| 20260507160105 | 55 | 86 | 0.0 | 1.7 | 0.00 | 0.00 | 0.00 | 45 | 1012.0 |
| 20260507155601 | 54 | 245 | 0.0 | 1.7 | 0.00 | 0.00 | 0.00 | 46 | 1012.1 |
| 20260507155100 | 53 | 0 | 0.0 | 1.7 | 0.00 | 0.00 | 0.00 | 46 | 1012.1 |
| 20260507154558 | 54 | 288 | 0.0 | 1.7 | 0.00 | 0.00 | 0.00 | 45 | 1012.2 |
| 20260507154100 | 54 | 0 | 0.0 | 1.7 | 0.00 | 0.00 | 0.00 | 46 | 1012.2 |
| 20260507153600 | 54 | 0 | 0.9 | 1.7 | 0.00 | 0.00 | 0.00 | 46 | 1012.3 |
| 20260507153058 | 54 | 1 | 0.0 | 1.7 | 0.00 | 0.00 | 0.00 | 49 | 1012.3 |
| 20260507152600 | 54 | 45 | 0.9 | 1.7 | 0.00 | 0.00 | 0.00 | 49 | 1012.3 |
| 20260507152059 | 54 | 0 | 0.0 | 1.7 | 0.00 | 0.00 | 0.00 | 49 | 1012.3 |
| 20260507151559 | 54 | 129 | 0.0 | 0.9 | 0.00 | 0.00 | 0.00 | 51 | 1012.3 |
| 20260507151100 | 54 | 272 | 0.0 | 0.9 | 0.00 | 0.00 | 0.00 | 52 | 1012.4 |
| 20260507150600 | 54 | 0 | 0.0 | 0.9 | 0.00 | 0.00 | 0.00 | 50 | 1012.4 |
| 20260507150058 | 54 | 265 | 0.0 | 1.7 | 0.00 | 0.00 | 0.00 | 49 | 1012.4 |
| 20260507145600 | 54 | 290 | 0.9 | 1.7 | 0.00 | 0.00 | 0.00 | 51 | 1012.3 |
| 20260507145100 | 53 | 250 | 0.0 | 3.5 | 0.00 | 0.00 | 0.00 | 50 | 1012.4 |
| 20260507144559 | 53 | 275 | 0.9 | 3.5 | 0.00 | 0.00 | 0.00 | 49 | 1012.5 |
| 20260507144101 | 53 | 260 | 0.9 | 1.7 | 0.00 | 0.00 | 0.00 | 52 | 1012.5 |
| 20260507143603 | 53 | 247 | 0.0 | 2.6 | 0.00 | 0.00 | 0.00 | 52 | 1012.4 |
| 20260507143102 | 53 | 240 | 0.9 | 2.6 | 0.00 | 0.00 | 0.00 | 53 | 1012.5 |
| 20260507142601 | 53 | 0 | 0.9 | 1.7 | 0.00 | 0.00 | 0.00 | 49 | 1012.6 |
| 20260507142059 | 53 | 0 | 0.0 | 1.7 | 0.00 | 0.00 | 0.00 | 53 | 1012.6 |
| 20260507141603 | 52 | 252 | 0.0 | 1.7 | 0.00 | 0.00 | 0.00 | 55 | 1012.7 |
| 20260507141059 | 52 | 259 | 0.0 | 1.7 | 0.00 | 0.00 | 0.00 | 55 | 1012.7 |
| 20260507140559 | 52 | 252 | 0.0 | 1.7 | 0.00 | 0.00 | 0.00 | 56 | 1012.8 |
| 20260507140125 | 52 | 254 | 0.0 | 1.7 | 0.00 | 0.00 | 0.00 | 58 | 1012.8 |
| 20260507135600 | 51 | 0 | 0.0 | 1.7 | 0.00 | 0.00 | 0.00 | 57 | 1012.8 |
| 20260507135059 | 51 | 283 | 0.0 | 0.9 | 0.00 | 0.00 | 0.00 | 59 | 1012.9 |
| 20260507134558 | 51 | 349 | 0.0 | 0.9 | 0.00 | 0.00 | 0.00 | 62 | 1013.0 |
| 20260507134059 | 51 | 354 | 0.0 | 1.7 | 0.00 | 0.00 | 0.00 | 64 | 1013.1 |
| 20260507133558 | 50 | 0 | 0.0 | 1.7 | 0.00 | 0.00 | 0.00 | 65 | 1013.1 |
| 20260507133100 | 50 | 44 | 0.0 | 1.7 | 0.00 | 0.00 | 0.00 | 66 | 1013.1 |
| 20260507132559 | 50 | 292 | 0.0 | 0.9 | 0.00 | 0.00 | 0.00 | 67 | 1013.1 |
| 20260507132059 | 50 | 282 | 0.0 | 0.9 | 0.00 | 0.00 | 0.00 | 68 | 1013.2 |
| 20260507131614 | 50 | 0 | 0.0 | 0.0 | 0.00 | 0.00 | 0.00 | 72 | 1013.1 |
| 20260507131059 | 49 | 0 | 0.0 | 0.0 | 0.00 | 0.00 | 0.00 | 70 | 1013.1 |
| 20260507130559 | 49 | 0 | 0.0 | 0.0 | 0.00 | 0.00 | 0.00 | 73 | 1013.1 |
| 20260507130111 | 49 | 0 | 0.0 | 0.0 | 0.00 | 0.00 | 0.00 | 72 | 1013.0 |
| 20260507125559 | 48 | 0 | 0.0 | 0.0 | 0.00 | 0.00 | 0.00 | 73 | 1013.0 |
| 20260507125058 | 48 | 0 | 0.0 | 0.0 | 0.00 | 0.00 | 0.00 | 72 | 1013.0 |
| 20260507124612 | 48 | 0 | 0.0 | 0.0 | 0.00 | 0.00 | 0.00 | 73 | 1013.1 |
| 20260507124059 | 48 | 0 | 0.0 | 0.0 | 0.00 | 0.00 | 0.00 | 73 | 1013.0 |
| 20260507123559 | 47 | 0 | 0.0 | 0.0 | 0.00 | 0.00 | 0.00 | 75 | 1013.1 |
| 20260507123101 | 47 | 0 | 0.0 | 0.0 | 0.00 | 0.00 | 0.00 | 75 | 1013.0 |
| 20260507122559 | 47 | 0 | 0.0 | 0.0 | 0.00 | 0.00 | 0.00 | 76 | 1013.0 |
| 20260507122104 | 46 | 0 | 0.0 | 0.0 | 0.00 | 0.00 | 0.00 | 77 | 1013.0 |
| 20260507121602 | 46 | 0 | 0.0 | 0.0 | 0.00 | 0.00 | 0.00 | 77 | 1013.0 |
| 20260507121059 | 45 | 0 | 0.0 | 0.0 | 0.00 | 0.00 | 0.00 | 77 | 1013.0 |
| 20260507120559 | 45 | 0 | 0.0 | 0.0 | 0.00 | 0.00 | 0.00 | 79 | 1013.0 |
| 20260507115559 | 44 | 0 | 0.0 | 0.0 | 0.00 | 0.00 | 0.00 | 82 | 1013.1 |
| 20260507115059 | 43 | 0 | 0.0 | 0.0 | 0.00 | 0.00 | 0.00 | 83 | 1013.0 |
| 20260507114606 | 43 | 0 | 0.0 | 0.0 | 0.00 | 0.00 | 0.00 | 85 | 1013.0 |
| 20260507114101 | 42 | 0 | 0.0 | 0.0 | 0.00 | 0.00 | 0.00 | 86 | 1013.0 |
| 20260507113559 | 41 | 0 | 0.0 | 0.0 | 0.00 | 0.00 | 0.00 | 88 | 1013.1 |
| 20260507113103 | 41 | 0 | 0.0 | 0.0 | 0.00 | 0.00 | 0.00 | 89 | 1013.1 |
| 20260507112559 | 41 | 0 | 0.0 | 0.0 | 0.00 | 0.00 | 0.00 | 89 | 1013.0 |
| 20260507112100 | 40 | 0 | 0.0 | 0.0 | 0.00 | 0.00 | 0.00 | 90 | 1012.9 |
| 20260507111559 | 40 | 0 | 0.0 | 0.0 | 0.00 | 0.00 | 0.00 | 90 | 1012.9 |
| 20260507111100 | 40 | 0 | 0.0 | 0.0 | 0.00 | 0.00 | 0.00 | 90 | 1012.9 |
| 20260507110600 | 40 | 0 | 0.0 | 0.0 | 0.00 | 0.00 | 0.00 | 89 | 1013.0 |
| 20260507110059 | 40 | 0 | 0.0 | 0.0 | 0.00 | 0.00 | 0.00 | 89 | 1012.9 |
| 20260507105600 | 39 | 0 | 0.0 | 0.0 | 0.00 | 0.01 | 0.00 | 89 | 1012.9 |
| 20260507105100 | 39 | 0 | 0.0 | 0.0 | 0.00 | 0.01 | 0.00 | 89 | 1012.8 |
| 20260507104557 | 39 | 0 | 0.0 | 0.0 | 0.00 | 0.01 | 0.00 | 89 | 1012.8 |
| 20260507104100 | 40 | 0 | 0.0 | 0.0 | 0.00 | 0.01 | 0.00 | 89 | 1012.6 |
| 20260507103559 | 40 | 0 | 0.0 | 0.0 | 0.00 | 0.01 | 0.00 | 89 | 1012.7 |
| 20260507103059 | 40 | 0 | 0.0 | 0.0 | 0.00 | 0.01 | 0.00 | 89 | 1012.6 |
| 20260507102602 | 40 | 0 | 0.0 | 0.0 | 0.00 | 0.01 | 0.00 | 89 | 1012.5 |
| 20260507102101 | 40 | 0 | 0.0 | 0.0 | 0.00 | 0.01 | 0.00 | 89 | 1012.5 |
| 20260507101601 | 40 | 0 | 0.0 | 0.0 | 0.00 | 0.01 | 0.00 | 90 | 1012.5 |
| 20260507101100 | 40 | 0 | 0.0 | 0.0 | 0.00 | 0.01 | 0.00 | 89 | 1012.5 |
| 20260507100600 | 40 | 0 | 0.0 | 0.0 | 0.00 | 0.01 | 0.00 | 90 | 1012.5 |
| 20260507100059 | 40 | 0 | 0.0 | 0.0 | 0.00 | 0.01 | 0.00 | 89 | 1012.5 |
| 20260507095601 | 40 | 0 | 0.0 | 0.0 | 0.00 | 0.10 | 0.00 | 89 | 1012.5 |
| 20260507095102 | 40 | 0 | 0.0 | 0.0 | 0.00 | 0.10 | 0.00 | 90 | 1012.5 |
| 20260507094557 | 40 | 0 | 0.0 | 0.0 | 0.00 | 0.10 | 0.00 | 90 | 1012.4 |
| 20260507094100 | 40 | 0 | 0.0 | 0.0 | 0.00 | 0.10 | 0.00 | 90 | 1012.5 |
| 20260507093600 | 39 | 0 | 0.0 | 0.0 | 0.00 | 0.10 | 0.00 | 90 | 1012.5 |
| 20260507093058 | 39 | 0 | 0.0 | 0.0 | 0.00 | 0.10 | 0.00 | 90 | 1012.7 |
| 20260507092600 | 39 | 0 | 0.0 | 0.0 | 0.00 | 0.10 | 0.00 | 90 | 1012.7 |
| 20260507092100 | 39 | 0 | 0.0 | 0.0 | 0.00 | 0.10 | 0.00 | 90 | 1012.7 |
| 20260507091606 | 39 | 0 | 0.0 | 0.0 | 0.00 | 0.10 | 0.00 | 90 | 1012.7 |
| 20260507091101 | 39 | 0 | 0.0 | 0.0 | 0.00 | 0.10 | 0.00 | 91 | 1012.7 |
| 20260507090600 | 39 | 0 | 0.0 | 0.0 | 0.00 | 0.10 | 0.00 | 91 | 1012.7 |
| 20260507090100 | 39 | 0 | 0.0 | 0.0 | 0.00 | 0.10 | 0.00 | 91 | 1012.8 |
| 20260507085600 | 39 | 0 | 0.0 | 0.0 | 0.00 | 0.18 | 0.00 | 91 | 1012.8 |
| 20260507085101 | 39 | 0 | 0.0 | 0.0 | 0.00 | 0.18 | 0.00 | 90 | 1012.8 |
| 20260507084559 | 39 | 0 | 0.0 | 0.0 | 0.00 | 0.18 | 0.00 | 90 | 1012.8 |
| 20260507084100 | 39 | 0 | 0.0 | 0.0 | 0.00 | 0.18 | 0.00 | 90 | 1012.8 |
| 20260507083600 | 39 | 0 | 0.0 | 0.0 | 0.00 | 0.18 | 0.00 | 90 | 1012.8 |
| 20260507083104 | 39 | 0 | 0.0 | 0.0 | 0.00 | 0.18 | 0.00 | 90 | 1012.8 |
| 20260507082601 | 39 | 0 | 0.0 | 0.0 | 0.00 | 0.18 | 0.00 | 90 | 1012.8 |
| 20260507082100 | 39 | 0 | 0.0 | 0.0 | 0.00 | 0.18 | 0.00 | 90 | 1012.9 |
| 20260507081559 | 39 | 0 | 0.0 | 0.0 | 0.00 | 0.18 | 0.00 | 90 | 1012.9 |
| 20260507081100 | 39 | 0 | 0.0 | 0.0 | 0.00 | 0.18 | 0.00 | 89 | 1012.8 |
| 20260507080600 | 39 | 0 | 0.0 | 0.0 | 0.00 | 0.18 | 0.00 | 89 | 1012.9 |
| 20260507080135 | 39 | 0 | 0.0 | 0.0 | 0.00 | 0.18 | 0.00 | 89 | 1012.9 |
| 20260507075601 | 39 | 0 | 0.0 | 0.0 | 0.00 | 0.35 | 0.00 | 89 | 1012.9 |
| 20260507075101 | 39 | 0 | 0.0 | 0.0 | 0.00 | 0.35 | 0.00 | 89 | 1012.9 |
| 20260507074605 | 39 | 0 | 0.0 | 0.0 | 0.00 | 0.35 | 0.00 | 89 | 1012.9 |
| 20260507074100 | 40 | 0 | 0.0 | 0.0 | 0.00 | 0.35 | 0.00 | 88 | 1012.9 |
| 20260507073600 | 40 | 0 | 0.0 | 0.0 | 0.00 | 0.35 | 0.00 | 88 | 1012.9 |
| 20260507073111 | 40 | 0 | 0.0 | 0.0 | 0.00 | 0.35 | 0.00 | 88 | 1012.9 |
| 20260507072601 | 40 | 0 | 0.0 | 0.0 | 0.00 | 0.35 | 0.00 | 87 | 1012.9 |
| 20260507072100 | 40 | 0 | 0.0 | 0.0 | 0.00 | 0.35 | 0.00 | 87 | 1013.0 |
| 20260507071613 | 40 | 0 | 0.0 | 0.0 | 0.00 | 0.35 | 0.00 | 87 | 1012.9 |
| 20260507071101 | 40 | 0 | 0.0 | 0.0 | 0.00 | 0.35 | 0.00 | 87 | 1012.9 |
| 20260507070600 | 40 | 0 | 0.0 | 0.0 | 0.00 | 0.35 | 0.00 | 86 | 1012.9 |
| 20260507065600 | 41 | 0 | 0.0 | 0.0 | 0.00 | 0.46 | 0.00 | 86 | 1013.0 |
| 20260507065100 | 41 | 0 | 0.0 | 0.0 | 0.00 | 0.46 | 0.00 | 86 | 1013.2 |
| 20260507064600 | 41 | 0 | 0.0 | 0.0 | 0.00 | 0.46 | 0.00 | 85 | 1013.1 |
| 20260507064100 | 41 | 0 | 0.0 | 0.0 | 0.00 | 0.46 | 0.00 | 85 | 1013.1 |
| 20260507063601 | 41 | 0 | 0.0 | 0.0 | 0.00 | 0.46 | 0.00 | 85 | 1013.2 |
| 20260507063102 | 41 | 0 | 0.0 | 0.0 | 0.00 | 0.46 | 0.00 | 85 | 1013.2 |
| 20260507062600 | 41 | 0 | 0.0 | 0.0 | 0.00 | 0.46 | 0.00 | 85 | 1013.3 |
| 20260507062101 | 41 | 0 | 0.0 | 0.0 | 0.00 | 0.46 | 0.00 | 84 | 1013.4 |
| 20260507061559 | 41 | 0 | 0.0 | 0.0 | 0.00 | 0.46 | 0.00 | 84 | 1013.5 |
| 20260507061101 | 42 | 0 | 0.0 | 0.0 | 0.00 | 0.46 | 0.00 | 84 | 1013.4 |
| 20260507060600 | 42 | 0 | 0.0 | 0.0 | 0.00 | 0.46 | 0.00 | 83 | 1013.5 |
| 20260507060103 | 42 | 0 | 0.0 | 0.0 | 0.00 | 0.46 | 0.00 | 83 | 1013.5 |
| 20260507055600 | 42 | 0 | 0.0 | 0.0 | 0.00 | 0.54 | 0.00 | 83 | 1013.5 |
| 20260507055100 | 42 | 0 | 0.0 | 0.0 | 0.00 | 0.54 | 0.00 | 82 | 1013.5 |